Weather in Val d'Isere

France     45°26′54″N   6°58′50″E
temp.,
°C
wind,
m/s
gust,
m/s
humid.,
%
clouds,
%
prec.,
mm/h
press.,
hPa
HPBL,
m
15 april, thu
thu1523:00−15ssw129676 0.1 102810
02:00−18s2210048 0.1 103010
05:00−18s22822 0.0 102810
08:00−15s22730 0.0 102611
11:00−10wsw11152 0.0 1020878
14:00−7wnw326599 0.3 10191112
17:00−7wnw327399 0.7 1018915
20:00−12ssw119599 1.3 102114
16 april, fri
fri1623:00−11se3395100 0.6 102324
02:00−14se3394100 0.9 102413
05:00−15se3395100 0.2 102414
08:00−12se339350 0.3 102266
11:00−8ese3373100 0.3 10181012
14:00−7ese3372100 1.1 10171043
17:00−6ese226699 0.6 1016946
20:00−12ese328951 0.9 102110
17 april, sat
sat1723:00−15se439553 0.0 102614
02:00−15ese33874 0.0 102512
05:00−15se33790 0.0 102512
08:00−12se327560 0.0 102116
11:00−7ese1235100 0.0 1016733
14:00−5nnw2253100 0.0 10141055
17:00−4nw227599 0.1 1012745
20:00−6nw229799 0.9 1015105
18 april, sun
sun1823:00−11ese119980 0.2 102010
02:00−12se229440 0.2 102010
05:00−13ssw119735 0.0 102110
08:00−11wnw1110093 0.0 102036
11:00−6nw329047 0.0 1016380
14:00−5wnw339599 0.2 1015576
17:00−4wnw339299 0.4 1015546
20:00−8wnw229895 0.7 101892
19 april, mon
mon1923:00−10nw1110091 0.1 102129
02:00−12w019748 0.1 102210
05:00−15s119947 0.0 102511
08:00−10e01810 0.0 102011
11:00−5nw22722 0.0 1015428
14:00−4wnw229157 0.0 1014550
17:00−3wnw338892 0.1 1013585
20:00−7wnw219546 0.3 101611